Regional Weather Roundup
Issued by NWS

Home | Current Version | Previous Version | Graphics & Text | Print | Product List | Glossary On
Versions: 1 2 3 4 5 6 7 8 9 10 11 12 13 14 15 16 17 18 19 20 21 22 23 24 25 26 27
000
ASUS45 KBOU 210807
RWRCO

WEATHER ROUNDUP FOR COLORADO
NATIONAL WEATHER SERVICE DENVER/BOULDER CO
200 AM MDT THU SEP 21 2017

NOTE: "FAIR" INDICATES FEW OR NO CLOUDS BELOW 12000 FEET WITH NO
SIGNIFICANT WEATHER AND/OR OBSTRUCTIONS TO VISIBILITY.

COZ001>005-013-030-031-210900-
...NORTHWEST COLORADO...

CITY           SKY/WX    TMP DP  RH WIND       PRES   REMARKS
CRAIG          FAIR      46  36  68 N5        29.81S
HAYDEN         FAIR      60  28  29 S6        29.86S
MEEKER         FAIR      55  29  36 N3        29.84S
RABBIT EARS PA FAIR      46  23  39 SW16G36   30.07F
STEAMBOAT SPGS FAIR      45  35  68 CALM      29.87S
WALDEN         FAIR      45  27  49 S14       29.96S
$$

COZ006>008-011-210900-
...WEST CENTRAL VALLEYS...

CITY           SKY/WX    TMP DP  RH WIND       PRES   REMARKS
GRAND JUNCTION FAIR      68  30  24 SE14      29.78R
MONTROSE       FAIR      69  26  20 SE10G22   29.92R
EAGLE          FAIR      53  28  38 E9        29.92R
RIFLE          FAIR      60  30  32 NE3       29.82R
DELTA          FAIR      64  31  29 N6        29.89R
NUCLA          FAIR      66  28  24 S13G20    29.97S
$$

COZ017>023-064>068-210900-
...SOUTHWEST COLORADO...

CITY           SKY/WX    TMP DP  RH WIND       PRES   REMARKS
DURANGO        FAIR      44  31  60 CALM      30.07R
CORTEZ         FAIR      51  31  46 CALM      30.00R
PAGOSA SPRINGS FAIR      43  28  54 CALM      30.15R
TELLURIDE      FAIR      57  25  29 S10G31    30.18R
WOLF CREEK PAS FAIR      37  23  56 S32G41    30.33F
$$

COZ009-010-012-014-032>034-037-058>063-210900-
...CENTRAL COLORADO...

CITY           SKY/WX    TMP DP  RH WIND       PRES   REMARKS
ASPEN          FAIR      51  27  39 S12       29.99S
BUENA VISTA    FAIR      50  22  34 CALM      30.05S
COPPER MTN     FAIR      45  18  33 SW14G23   30.26F
BERTHOUD PASS  FAIR      37  30  75 W25G37    30.24F
COTTONWOOD PAS FAIR      59  19  21 W7        30.17S
GUNNISON       FAIR      36  29  75 CALM      30.08R
KREMMLING      FAIR      45  30  57 SE3       29.96S
LEADVILLE      FAIR      44  20  38 S7        30.13F
MONARCH PASS   FAIR      41  21  45 SW29      30.40S
SALIDA         FAIR      61  23  23 S8        30.11S
SUNLIGHT       FAIR      43  23  45 S13G26    30.17S
WILKERSON PASS FAIR      43  19  39 SW16G30   30.24S
$$

COZ069>075-210900-
...SAN LUIS VALLEY/SANGRE DE CRISTO MOUNTAINS...

CITY           SKY/WX    TMP DP  RH WIND       PRES   REMARKS
ALAMOSA        FAIR      41  27  57 S5        30.10R
DEL NORTE      FAIR      40  25  54 W7        30.12R
LA VETA PASS   FAIR      50  21  32 S22G40    30.31F
SAGUACHE       FAIR      39  28  65 N6        30.11S
$$

COZ035-036-038>040-210900-
...NORTHERN COLORADO FRONT RANGE...

CITY           SKY/WX    TMP DP  RH WIND       PRES   REMARKS
DENVER INTL AP FAIR      61  31  32 SW12      29.82S
DMNS CITY PARK   N/A     59  32  36 S2G12     29.82F
AURORA         CLEAR     62  30  30 S13       29.84S
FRONT RANGE AP FAIR      66  32  28 S18G31    29.83S
ERIE MUNI ARPT FAIR      44  35  72 CALM      29.87S
BOULDER MUN AP FAIR      54  36  50 CALM      29.82S
CENTENNIAL     FAIR      62  29  28 S14       29.86R
BROOMFIELD     FAIR      55  32  41 W3        29.84S
FORT COLLINS   FAIR      48  37  65 N9        29.82S
LONGMONT       FAIR      47  38  69 CALM      29.83S
$$

COZ041-046-047-076>085-087-088-210900-
...PIKES PEAK/PALMER DIVIDE AND SOUTHERN FOOTHILLS...

CITY           SKY/WX    TMP DP  RH WIND       PRES   REMARKS
COLO. SPRINGS  FAIR      47  35  63 N7        29.95S
A. F. ACADEMY  FAIR      43  32  65 N10       29.94F
SCHRIEVER AFB  FAIR      50  35  56 N7        29.94F
CHEYENNE MTN   FAIR      58  25  27 NW7       29.92F
ELLICOTT         N/A    N/A N/A N/A CALM      29.92F
FALCON         FAIR      47  33  59 CALM      29.98S
FORT CARSON    FAIR      48  34  59 NW6       29.91F
LIMON          FAIR      39  32  76 CALM      29.91S
MONUMENT HILL  FAIR      54  28  37 S10G17    29.98S
CANON CITY     CLEAR     54  34  47 W12       29.89F
WALSENBURG     FAIR      55  25  30 E3        29.95F
TRINIDAD       FAIR      57  35  43 SW8       29.95F
$$

COZ042>045-048>051-090-091-210900-
...NORTHEAST COLORADO...

CITY           SKY/WX    TMP DP  RH WIND       PRES   REMARKS
GREELEY ARPT   FAIR      49  36  61 NE7       29.80F
AKRON          FAIR      51  33  50 SE13      29.83F
BURLINGTON     FAIR      56  39  53 S16       29.87S
WRAY           FAIR      54  34  47 E6        29.85S
YUMA           FAIR      46  36  66 SE5       29.83S
STERLING       FAIR      50  36  57 W3        29.81F
HOLYOKE        NOT AVBL
FORT MORGAN    FAIR      51  32  48 E6        29.82F
$$

COZ086-089-092>099-210900-
...SOUTHEAST COLORADO...

CITY           SKY/WX    TMP DP  RH WIND       PRES   REMARKS
PUEBLO         FAIR      47  33  58 CALM      29.87S
LA JUNTA       FAIR      54  40  59 CALM      29.85S
LAMAR          FAIR      51  40  65 E10       29.84F
SPRINGFIELD      N/A     48  44  86 SW7       29.92F
$$




USA.gov is the U.S. government's official web portal to all federal, state and local government web resources and services.